CZ-6A DEB, 56670

Orbit data source: Space-Track

CZ-6A DEB, 56670 is space debris in SSO originally from a launch on Fri, 11 Nov 2022 UTC launched from the Taiyaun Space Center, China (TSC). Debris objects in space refer to the collection of defunct objects orbiting the Earth. Examples of debris include non-operational satellites, rocket bodies, and fragments generated from explosions, collisions, or faulty payload assembly.

Loading next visibility...
Identifier
56670, 2022-151AGW
Orbit
SSO
Country
Flag of CNCN / PRC
Related business
Manufacturer
SAST
Mission
Spacecraft
Bus & Motor
Unknown
Mass
Unknown
Launch date (UTC)
2022-11-11 (4 years ago)
Launch vehicle
Unknown
Launch site
Taiyaun Space Center, China (TSC)
Object type
Payload
Rocket body
Debris
Shape & HBR
Unknown shape, 0.1 m
Radar Cross Section
Medium (>0.1 m² and <1 m²)

Expand to show TLE details & history
Last TLE update: 3 days ago

TLE from 3 days ago
0 CZ-6A DEB
1 56670U 22151AGW 26170.23257567  .00001149  00000-0  59371-3 0  9991
2 56670  98.8059 172.2597 0041971 277.1859  82.4544 14.16544394162860
Epoch: 2026-06-19T05:34Z
TLE epoch observation values (Epoch: 2026-06-19T05:34:54.537Z)
Latitude
-0.0001°
Longitude
-178.93202°
Altitude
836.117 km
Speed
7.437 km/s
True Right ascension
11h 29m 02s
True Declination
0° 00' 00"
Sunlit
Object was in daylight at epoch
Visualization orbit readout
Latitude
Unknown
Longitude
Unknown
Altitude
Unknown
Speed
Unknown
Apparent Right ascension
Unknown
Apparent Declination
Unknown
Sunlit
N/A
Visualization observer readout
Local Sidereal Time
21:55:07
Azimuth
Unknown
Elevation
Unknown
Doppler factor
Unknown
Orbital elements
Apogee altitude
864.502 km
Perigee altitude
803.96 km
Semi-major axis
7,212.368 km
Eccentricity
0.0042
Inclination
98.8059°
RAAN
172.2597°
Arg. of periapsis
277.1859°
True anomaly
82.93151°
Mean anomaly
82.4544°
Eccentric anomaly
82.69292°
Mean motion
3.54345 °/min
Orbital period
101.6 mins
BSTAR
0.00059371
Loading maneuver chart data...
Computing Atmospheric mass density...
Loading historical data...
Loading historical data...
Loading historical data...
Loading historical data...
Loading historical data...
Loading historical data...
Loading historical data...

Documentation

Showing up to 5 results
|